Weather History for Victorville, CA

Change the Weather History Date:

Saturday, January 19, 2013

  Actual Average (KSBD) Record (KSBD)
Temperature  
Mean Temperature 45 °F -  
Max Temperature 62 °F 66 °F 78 °F (2014)
Min Temperature 28 °F 41 °F 33 °F (2012)
Degree Days  
Heating Degree Days 20    
Moisture  
Dew Point 9 °F    
Average Humidity 29    
Maximum Humidity 59    
Minimum Humidity 11    
Precipitation  
Precipitation 0.00 in - - ()
Sea Level Pressure  
Sea Level Pressure 30.27 in    
Wind  
Wind Speed 7 mph (ESE)    
Max Wind Speed 13 mph    
Max Gust Speed 17 mph    
Visibility 10 miles    
Events      
Averages and records for this station are not official NWS values.
T = Trace of Precipitation, MM = Missing Value Source: NWS Daily Summary

Daily Weather History Graph

Daily Weather History Graph

Search for Another Location

Airport:

Trip Planner

Search our weather history database for the weather conditions in past years. The results will help you decide how hot, cold, wet, or windy it might be!

Date:

Astronomy

Jan. 19, 2013 Rise Set
Actual Time 6:54 AM PST 5:06 PM PST
Civil Twilight 6:27 AM PST 5:33 PM PST
Nautical Twilight 5:56 AM PST 6:04 PM PST
Astronomical Twilight 5:26 AM PST 6:34 PM PST
Moon 11:32 AM PST (1/19) 12:37 AM PST (1/19)
Length of Visible Light 11h 05m
Length of Day
10h 11m
First Quarter, 58% of the Moon is Illuminated
Jan 19
First Quarter
Jan 26
Full
Feb 3
Last Quarter
Feb 9
New
Feb 17
First Quarter

Hourly Weather History & Observations

Time (PST) Temp. Windchill Dew Point Humidity Pressure Visibility Wind Dir Wind Speed Gust Speed Precip Events Conditions
12:15 AM 30.2 °F 22.6 °F 8.6 °F 40% 30.26 in 10.0 mi SE 8.1 mph - N/A   Clear
12:35 AM 28.4 °F 20.4 °F 8.6 °F 43% 30.26 in 10.0 mi SE 8.1 mph - N/A   Clear
12:55 AM 30.2 °F 24.3 °F 8.6 °F 40% 30.26 in 10.0 mi SSE 5.8 mph - N/A   Clear
1:15 AM 28.4 °F 21.2 °F 8.6 °F 43% 30.27 in 10.0 mi SE 6.9 mph - N/A   Clear
1:35 AM 30.2 °F 22.6 °F 10.4 °F 44% 30.27 in 10.0 mi SE 8.1 mph - N/A   Clear
1:55 AM 28.4 °F 20.4 °F 10.4 °F 47% 30.27 in 10.0 mi SE 8.1 mph - N/A   Clear
2:15 AM 28.4 °F 22.2 °F 12.2 °F 51% 30.27 in 10.0 mi SE 5.8 mph - N/A   Clear
2:35 AM 28.4 °F 20.4 °F 12.2 °F 51% 30.27 in 10.0 mi SE 8.1 mph - N/A   Clear
2:55 AM 30.2 °F 23.4 °F 15.8 °F 55% 30.28 in 10.0 mi SE 6.9 mph - N/A   Clear
3:15 AM 28.4 °F 23.3 °F 14.0 °F 55% 30.28 in 10.0 mi SE 4.6 mph - N/A   Clear
3:35 AM 28.4 °F 22.2 °F 14.0 °F 55% 30.28 in 10.0 mi SE 5.8 mph - N/A   Clear
4:55 AM 28.4 °F 19.7 °F 15.8 °F 59% 30.28 in 10.0 mi SE 9.2 mph - N/A   Clear
5:15 AM 30.2 °F 21.9 °F 15.8 °F 55% 30.28 in 10.0 mi ESE 9.2 mph - N/A   Clear
5:55 AM 28.4 °F 19.7 °F 14.0 °F 55% 30.29 in 10.0 mi SE 9.2 mph - N/A   Clear
6:15 AM 30.2 °F 21.3 °F 15.8 °F 55% 30.29 in 10.0 mi SE 10.4 mph - N/A   Clear
6:35 AM 28.4 °F 19.7 °F 15.8 °F 59% 30.30 in 10.0 mi ESE 9.2 mph - N/A   Clear
7:35 AM 30.2 °F 23.4 °F 15.8 °F 55% 30.31 in 10.0 mi SE 6.9 mph - N/A   Clear
7:55 AM 33.8 °F 29.6 °F 15.8 °F 48% 30.31 in 10.0 mi SE 4.6 mph - N/A   Clear
8:15 AM 37.4 °F 32.8 °F 15.8 °F 41% 30.32 in 10.0 mi ESE 5.8 mph - N/A   Clear
8:35 AM 39.2 °F 35.0 °F 15.8 °F 39% 30.33 in 10.0 mi ESE 5.8 mph - N/A   Clear
8:55 AM 42.8 °F 39.3 °F 14.0 °F 31% 30.34 in 10.0 mi ESE 5.8 mph - N/A   Clear
9:15 AM 44.6 °F 42.2 °F 14.0 °F 29% 30.34 in 10.0 mi ESE 4.6 mph - N/A   Clear
9:35 AM 46.4 °F - 14.0 °F 27% 30.35 in 10.0 mi Calm Calm - N/A   Clear
9:55 AM 48.2 °F - 12.2 °F 24% 30.35 in 10.0 mi Calm Calm - N/A   Clear
10:15 AM 48.2 °F - 12.2 °F 24% 30.34 in 10.0 mi Calm Calm - N/A   Unknown
10:35 AM 51.8 °F - 12.2 °F 21% 30.33 in 10.0 mi Calm Calm - N/A   Unknown
10:55 AM 53.6 °F - 12.2 °F 19% 30.32 in 10.0 mi NNW 3.5 mph - N/A   Unknown
11:15 AM 53.6 °F - 12.2 °F 19% 30.31 in 10.0 mi NNW 4.6 mph - N/A   Unknown
11:35 AM 55.4 °F - 10.4 °F 17% 30.30 in 10.0 mi NNW 5.8 mph - N/A   Clear
11:55 AM 55.4 °F - 8.6 °F 15% 30.28 in 10.0 mi North 6.9 mph - N/A   Unknown
12:15 PM 57.2 °F - 8.6 °F 14% 30.28 in 10.0 mi North 8.1 mph - N/A   Unknown
12:55 PM 60.8 °F - 8.6 °F 13% 30.26 in 10.0 mi NNW 12.7 mph - N/A   Unknown
1:15 PM 60.8 °F - 8.6 °F 13% 30.26 in 10.0 mi North 10.4 mph - N/A   Unknown
1:35 PM 60.8 °F - 6.8 °F 12% 30.25 in 10.0 mi North 11.5 mph 17.3 mph N/A   Clear
1:55 PM 62.6 °F - 6.8 °F 11% 30.25 in 10.0 mi NNW 11.5 mph - N/A   Clear
2:15 PM 62.6 °F - 6.8 °F 11% 30.25 in 10.0 mi North 9.2 mph - N/A   Clear
2:35 PM 62.6 °F - 6.8 °F 11% 30.24 in 10.0 mi North 9.2 mph - N/A   Clear
2:55 PM 62.6 °F - 6.8 °F 11% 30.24 in 10.0 mi North 6.9 mph - N/A   Clear
3:15 PM 62.6 °F - 6.8 °F 11% 30.23 in 10.0 mi North 6.9 mph - N/A   Clear
3:35 PM 62.6 °F - 6.8 °F 11% 30.23 in 10.0 mi North 8.1 mph - N/A   Clear
3:55 PM 60.8 °F - 5.0 °F 11% 30.24 in 10.0 mi North 8.1 mph - N/A   Clear
4:15 PM 60.8 °F - 5.0 °F 11% 30.24 in 10.0 mi North 9.2 mph - N/A   Clear
4:35 PM 57.2 °F - 5.0 °F 12% 30.24 in 10.0 mi North 6.9 mph - N/A   Clear
4:55 PM 55.4 °F - 5.0 °F 13% 30.23 in 10.0 mi North 8.1 mph - N/A   Clear
5:15 PM 53.6 °F - 5.0 °F 14% 30.23 in 10.0 mi North 6.9 mph - N/A   Clear
5:35 PM 51.8 °F - 5.0 °F 15% 30.23 in 10.0 mi North 6.9 mph - N/A   Clear
5:55 PM 48.2 °F - 3.2 °F 16% 30.24 in 10.0 mi NNW 4.6 mph - N/A   Clear
6:15 PM 48.2 °F - 3.2 °F 16% 30.24 in 10.0 mi NNW 5.8 mph - N/A   Clear
6:35 PM 46.4 °F 42.9 °F 3.2 °F 17% 30.24 in 10.0 mi North 6.9 mph - N/A   Clear
6:55 PM 46.4 °F - 3.2 °F 17% 30.25 in 10.0 mi Calm Calm - N/A   Clear
7:15 PM 41.0 °F - 3.2 °F 21% 30.25 in 10.0 mi Calm Calm - N/A   Clear
7:35 PM 39.2 °F 37.0 °F 3.2 °F 22% 30.25 in 10.0 mi South 3.5 mph - N/A   Clear
7:55 PM 37.4 °F 34.9 °F 3.2 °F 24% 30.26 in 10.0 mi SSW 3.5 mph - N/A   Clear
8:15 PM 35.6 °F 31.7 °F 3.2 °F 26% 30.26 in 10.0 mi South 4.6 mph - N/A   Clear
8:35 PM 35.6 °F 32.8 °F 3.2 °F 26% 30.27 in 10.0 mi South 3.5 mph - N/A   Clear
8:55 PM 35.6 °F 30.7 °F 3.2 °F 26% 30.27 in 10.0 mi South 5.8 mph - N/A   Clear
9:15 PM 33.8 °F 30.8 °F 5.0 °F 30% 30.27 in 10.0 mi SSW 3.5 mph - N/A   Clear
9:35 PM 33.8 °F 30.8 °F 5.0 °F 30% 30.27 in 10.0 mi South 3.5 mph - N/A   Clear
9:55 PM 33.8 °F 30.8 °F 5.0 °F 30% 30.27 in 10.0 mi SSE 3.5 mph - N/A   Clear
10:15 PM 33.8 °F 28.6 °F 5.0 °F 30% 30.27 in 10.0 mi SSE 5.8 mph - N/A   Clear
10:35 PM 32.0 °F 25.6 °F 6.8 °F 35% 30.28 in 10.0 mi SE 6.9 mph - N/A   Clear
10:55 PM 33.8 °F 29.6 °F 6.8 °F 32% 30.28 in 10.0 mi SSE 4.6 mph - N/A   Clear
11:15 PM 33.8 °F 27.7 °F 6.8 °F 32% 30.28 in 10.0 mi SE 6.9 mph - N/A   Clear
11:35 PM 32.0 °F 25.6 °F 6.8 °F 35% 30.28 in 10.0 mi SSE 6.9 mph - N/A   Clear
11:55 PM 32.0 °F 25.6 °F 6.8 °F 35% 30.28 in 10.0 mi SSE 6.9 mph - N/A   Clear